Regional Weather Roundup
Issued by NWS

Home | Current Version | Previous Version | Text Only | Print | Product List | Glossary Off
Versions: 1 2 3 4 5 6 7 8 9 10 11 12 13 14 15 16 17 18 19 20 21 22 23 24 25 26 27 28 29 30 31 32 33 34 35 36 37 38 39 40 41 42 43 44 45 46 47 48 49 50

435
ASUS45 KBOI 280610
RWRID

IDAHO REGIONAL WEATHER ROUNDUP
NATIONAL WEATHER SERVICE BOISE ID
1200 AM MDT WED SEP 28 2016

NOTE: "FAIR" INDICATES FEW OR NO CLOUDS BELOW 12000 FEET
WITH NO SIGNIFICANT WEATHER AND/OR OBSTRUCTIONS TO VISIBILITY

IDZ012-014-280700-
SOUTHWEST IDAHO


CITY           SKY/WX    TMP DP  RH WIND       PRES   REMARKS
BOISE          CLEAR     66  41  40 SE8       30.01R
CALDWELL       NOT AVBL
MOUNTAIN HOME  CLEAR     59  43  54 E7        30.02S
$$

IDZ016-017-280700-
SOUTHCENTRAL IDAHO


CITY           SKY/WX    TMP DP  RH WIND       PRES   REMARKS
BURLEY         CLEAR     51  48  89 CALM      30.10S
JEROME         CLEAR     60  42  51 NE10      30.10S
TWIN FALLS     CLEAR     55  42  61 S9        30.09F
$$

IDZ019>023-280700-
SOUTHEAST IDAHO


CITY           SKY/WX    TMP DP  RH WIND       PRES   REMARKS
IDAHO FALLS    CLEAR     50  43  77 CALM      30.18S
POCATELLO      CLEAR     51  46  83 CALM      30.15S
REXBURG        CLEAR     49  43  80 NE5       30.19S
$$

IDZ006-010-011-018-031-032-280700-
CENTRAL IDAHO MOUNTAINS


CITY           SKY/WX    TMP DP  RH WIND       PRES   REMARKS
MCCALL         CLEAR     50  39  66 CALM      30.15S
HAILEY         CLEAR     52  41  66 NW10      30.23S
STANLEY          N/A     45  35  68 S3        30.28R
SALMON         CLEAR     50  41  71 CALM      30.13R
CHALLIS        CLEAR     54  34  46 CALM      30.18R
$$

IDZ002-004-006-007-026-280700-
NORTHERN IDAHO


CITY           SKY/WX    TMP DP  RH WIND       PRES   REMARKS
LEWISTON       CLEAR     65  45  48 S5        30.00R
LOWELL           N/A     56  53  90 N3        30.05R
COEUR D`ALENE  CLEAR     56  46  69 NE5       30.06R
MULLAN PASS    CLEAR     56  42  59 S5        30.21S
$$




USA.gov is the U.S. government's official web portal to all federal, state and local government web resources and services.